Regional Weather Roundup
Issued by NWS

Home | Current Version | Previous Version | Graphics & Text | Print | Product List | Glossary On
Versions: 1 2 3 4 5 6 7 8 9 10 11 12 13 14 15 16 17 18 19 20 21 22 23 24 25 26 27 28 29 30 31 32 33 34 35 36 37 38 39 40 41 42 43 44 45 46 47 48 49 50
962
ASUS43 KLOT 162312
RWRIL

ILLINOIS REGIONAL WEATHER ROUNDUP
NATIONAL WEATHER SERVICE CHICAGO/ROMEOVILLE IL
500 PM CST MON JAN 16 2017

NOTE: "FAIR" INDICATES FEW OR NO CLOUDS BELOW 12,000 FEET WITH NO
SIGNIFICANT WEATHER AND/OR OBSTRUCTIONS TO VISIBILITY.

* THESE STATIONS ARE NOT UNDER NWS QUALITY CONTROL. THEY ALSO MAY NOT
  REPORT WEATHER SUCH AS PRECIPITATION OR FOG.

ILZ001-002-007-009-015-016-024-170000-
NORTHWEST ILLINOIS

CITY           SKY/WX    TMP DP  RH WIND       PRES   REMARKS
MOLINE         CLOUDY    37  35  92 E9        29.95R WCI  30
STERLING*      LGT SNOW  36  36 100 E9        29.98R FOG     WCI  29
SAVANNA*       RAIN      35  34  97 E5        29.98R WCI  31
$$

ILZ003-004-008-010-011-017-018-170000-
NORTH CENTRAL ILLINOIS

CITY           SKY/WX    TMP DP  RH WIND       PRES   REMARKS
ROCKFORD       LGT RAIN  36  34  92 E8        30.01F FOG     WCI  30
FREEPORT*      LGT RAIN  33  33  99 E12       30.00F WCI  24
ROCHELLE*      LGT RAIN  35  34  98 E12       29.99F WCI  26
DE KALB*       CLOUDY    35  34  99 E12       30.01F FOG     WCI  26
$$

ILZ005-006-012>014-019>023-170000-
NORTHEAST ILLINOIS

CITY           SKY/WX    TMP DP  RH WIND       PRES   REMARKS
CHICAGO-OHARE  LGT RAIN  36  35  96 NE7       30.05F FOG     WCI  30
CHICAGO-MIDWAY LGT RAIN  36  35  96 E7        30.05F VSB 1   WCI  30
AURORA         CLOUDY    37  35  92 E9        30.03F FOG     WCI  30
LANSING*       FOG       36  36 100 SE6       30.06F VSB 1/2 WCI  31
JOLIET*        FOG       37  37 100 E6        30.04F VSB 1/2 WCI  33
WAUKEGAN       LGT RAIN  36  35  96 E7        30.06F VSB 1/4 WCI  30
DUPAGE AIRPORT CLOUDY    36  33  89 E8        30.03F FOG     WCI  30
KANKAKEE*      LGT RAIN  37  37  98 E10       30.04F VSB 1/2 WCI  30
WHEELING       LGT RAIN  35  34  96 E5        30.07F FOG     WCI  31
MORRIS*        FOG       36  35  97 E7        30.01F VSB 1/2 WCI  30
ROMEOVILLE*    CLOUDY    36  36 100 E6        30.04F FOG     WCI  31
NORTHERLY ISL    N/A     33  32  96 NE5         N/A  WCI  29
$$

LMZ740>746-170000-
SOUTHERN LAKE MICHIGAN

STATION/POSITION SKY/WX   TEMP    WIND        PRES    VSBY  WAVE
                          AIR SEA DIR/SP/G                  HT/PER
                          (F)     (DEG/KT/KT) (MB)    (MI)  (FT/S)
HARRISON CRIB              36     100/ 13/ 13   N/A
BURNHAM HARBOR             34      50/  5/  6   N/A
CALUMET HARBOR             34      80/  6/  9 1017.0F
BURNS HARBOR               38     110/  9/ 11 1018.3F
MICHIGAN CITY              36     100/  4/  6   N/A
$$

ILZ025>027-034>036-040-047-049-050-058-095>099-170000-
WEST-CENTRAL ILLINOIS

CITY           SKY/WX    TMP DP  RH WIND       PRES   REMARKS
QUINCY         FOG       42  42 100 E8        29.89F VSB 1/4
GALESBURG*     LGT RAIN  37  37 100 E5        29.94S WCI  34
MACOMB*        FOG       37  37 100 E9        29.95F VSB 1   WCI  30
JACKSONVILLE*  CLOUDY    48  47  99 CALM      29.93S FOG
PITTSFIELD*    FOG       47  47 100 E5        29.93S VSB<1/4
$$

ILZ028>032-037-038-041>044-048-051>054-059>061-170000-
CENTRAL ILLINOIS

CITY           SKY/WX    TMP DP  RH WIND       PRES   REMARKS
PONTIAC        LGT RAIN  37  37 100 E12       29.99F VSB 1/2 WCI  30
BLOOMINGTON    LGT RAIN  43  43 100 SE13      29.97F VSB 1/8
DECATUR        LGT RAIN  48  48 100 SE16      29.96F FOG
PEORIA         HVY RAIN  42  42 100 SE6       29.96S VSB 3/4
LACON*         CLOUDY    35  35 100 E6        29.96F FOG     WCI  30
LINCOLN*       CLOUDY    45  45 100 SE6       29.95S FOG
SPRINGFIELD    CLOUDY    51  49  92 S14       29.95R FOG
TAYLORVILLE    FOG       49  49  99 SE12G21   29.95F VSB 1/2
$$

ILZ033-039-045-046-055>057-062-063-170000-
EAST-CENTRAL ILLINOIS

CITY           SKY/WX    TMP DP  RH WIND       PRES   REMARKS
CHAMPAIGN      LGT RAIN  45  44  97 SE10      30.00F VSB 1/4
RANTOUL*       MIX PCPN  43  43 100 SE9       30.00F VSB<1/4
MATTOON        CLOUDY    50  50 100 SE13      30.00F FOG
PARIS*         CLOUDY    49  49 100 SE10      30.03F FOG
$$

ILZ079-100>102-170000-
SOUTHWEST ILLINOIS

CITY           SKY/WX    TMP DP  RH WIND       PRES   REMARKS
ALTON          RAIN      52  52 100 SE14      29.94R VSB 1
BELLEVILLE     LGT RAIN  54  54 100 SE7       29.93F FOG
CAHOKIA*       LGT RAIN  54  52  93 SE8       29.92F FOG
SPARTA*        LGT RAIN  55  54  98 SE12      29.95F
$$

ILZ064>066-069>071-074>076-080>082-084>086-088>090-092>094-170000-
SOUTH-CENTRAL ILLINOIS

CITY           SKY/WX    TMP DP  RH WIND       PRES   REMARKS
CARBONDALE     LGT RAIN  59  58  96 SE8       29.96F
CAIRO*         CLOUDY    61  57  87 SE9       29.98F
EFFINGHAM*     HVY RAIN  52  52 100 SE10G17   30.01F
MARION         CLOUDY    61  61 100 S92       30.00F
MT. VERNON     LGT RAIN  54  52  93 SE3       30.01S
CENTRALIA*     LGT RAIN  55  54  97 SE7       29.98F
SALEM*         RAIN      54  52  93 SE7       30.00S
METROPOLIS*    MOCLDY    60  56  88 CALM      30.01F
$$

ILZ067-068-072-073-078-083-087-091-170000-
SOUTHEAST ILLINOIS

CITY           SKY/WX    TMP DP  RH WIND       PRES   REMARKS
LAWRENCEVILLE  CLOUDY    54  53  97 SE8       30.04F
FLORA*         LGT RAIN  54  53  96 SE8       30.02S
FAIRFIELD*     CLOUDY    54  54  99 CALM      30.01F
HARRISBURG*    CLOUDY    54  53  98 SE7       30.01F
ROBINSON*      CLOUDY    53  52  97 SE7       30.05F
CARMI*         CLOUDY    53  53  99 SE8       30.02F
$$

ABBREVIATIONS USED IN REMARKS
   TC - TEMPERATURE IN CELSIUS
  WCI - WIND CHILL INDEX
   HX - HEAT INDEX
  VSB - VISIBILITY
$$





USA.gov is the U.S. government's official web portal to all federal, state and local government web resources and services.